TimeEST,TemperatureF,Dew PointF,Humidity,Sea Level PressureIn,VisibilityMPH,Wind Direction,Wind SpeedMPH,Gust SpeedMPH,PrecipitationIn,Events,Conditions,WindDirDegrees,DateUTC
12:53 AM,30.9,24.1,76,29.96,9.0,Calm,Calm,-,N/A,,Clear,0,2013-02-13 05:53:00
1:53 AM,28.9,23.0,78,29.95,9.0,Calm,Calm,-,N/A,,Clear,0,2013-02-13 06:53:00
3:53 AM,28.0,21.9,78,29.91,8.0,Calm,Calm,-,N/A,,Clear,0,2013-02-13 08:53:00
4:53 AM,27.0,21.9,81,29.90,7.0,Calm,Calm,-,N/A,,Clear,0,2013-02-13 09:53:00
6:53 AM,27.0,23.0,85,29.89,7.0,Calm,Calm,-,N/A,,Mostly Cloudy,0,2013-02-13 11:53:00
8:53 AM,32.0,25.0,75,29.88,5.0,Calm,Calm,-,N/A,,Haze,0,2013-02-13 13:53:00
9:53 AM,37.0,24.1,59,29.86,10.0,Calm,Calm,-,N/A,,Overcast,0,2013-02-13 14:53:00
10:53 AM,37.9,24.1,57,29.86,10.0,Variable,3.5,-,N/A,,Overcast,0,2013-02-13 15:53:00
11:53 AM,37.9,24.1,57,29.80,10.0,ENE,3.5,-,N/A,,Overcast,60,2013-02-13 16:53:00
12:53 PM,39.0,25.0,57,29.78,10.0,North,4.6,-,N/A,,Overcast,360,2013-02-13 17:53:00
1:53 PM,39.0,25.0,57,29.76,10.0,Calm,Calm,-,N/A,,Overcast,0,2013-02-13 18:53:00
2:53 PM,39.0,25.0,57,29.72,9.0,Calm,Calm,-,N/A,,Overcast,0,2013-02-13 19:53:00
3:53 PM,39.0,27.0,62,29.69,8.0,Variable,4.6,-,N/A,,Overcast,0,2013-02-13 20:53:00
4:53 PM,37.9,28.0,68,29.70,5.0,Calm,Calm,-,0.00,,Haze,0,2013-02-13 21:53:00
5:29 PM,35.6,30.2,81,29.66,1.8,Variable,4.6,-,0.00,Snow,Light Snow,0,2013-02-13 22:29:00
5:53 PM,36.0,30.0,79,29.70,2.5,ENE,9.2,-,0.00,Snow,Light Snow,60,2013-02-13 22:53:00
7:53 PM,34.0,30.9,89,29.73,1.0,Calm,Calm,-,0.04,Snow,Light Snow,0,2013-02-14 00:53:00
8:03 PM,33.8,30.2,87,29.69,0.8,Calm,Calm,-,0.01,Snow,Light Snow,0,2013-02-14 01:03:00
9:53 PM,34.0,30.9,89,29.75,1.2,Calm,Calm,-,0.01,Snow,Light Snow,0,2013-02-14 02:53:00
10:13 PM,33.8,30.2,87,29.71,3.0,Calm,Calm,-,0.01,Snow,Light Snow,0,2013-02-14 03:13:00
11:53 PM,34.0,30.9,89,29.77,4.0,Calm,Calm,-,N/A,,Mostly Cloudy,0,2013-02-14 04:53:00